Location: Kapla
(46.2483°N, 15.0094°E)
Time: 17:18:47
(UTC+00:00)

SME Rocket - Visible Passes

Search period start: 16 June 2021 00:00
Search period end: 26 June 2021 00:00
Orbit: 550 x 2651 km, 99.9° (Epoch: 15 June)

Date Brightness Start Highest point End Pass type
(mag) Time Alt. Az. Time Alt. Az. Time Alt. Az.
16 Jun 7.5 02:11:59 10° ENE 02:15:04 14° NE 02:18:42 10° N visible
16 Jun 7.9 20:11:30 10° N 20:19:39 26° NW 20:29:35 10° W visible
17 Jun 7.7 01:52:58 10° NE 01:55:12 12° NNE 01:57:42 10° NNE visible
17 Jun 7.7 19:50:46 10° N 19:59:47 31° NW 20:10:55 10° WSW visible
17 Jun 8.5 21:50:54 10° NNW 21:52:36 10° NNW 21:54:21 10° NW visible
18 Jun 7.5 19:30:05 10° N 19:39:54 37° NW 19:52:03 10° WSW visible
18 Jun 8.4 21:28:46 10° N 21:33:00 13° NNW 21:37:40 10° NW visible
19 Jun 7.3 19:09:29 10° N 19:20:00 44° WNW 19:32:58 10° WSW visible
19 Jun 8.4 21:07:35 10° N 21:13:22 16° NW 21:19:58 10° WNW visible
20 Jun 8.3 20:46:39 10° N 20:53:43 19° NW 21:01:54 10° WNW visible
21 Jun 7.3 02:24:08 10° E 02:28:42 20° NE 02:34:33 10° N visible
21 Jun 8.1 20:25:52 10° N 20:34:01 23° NW 20:43:34 10° W visible
22 Jun 7.6 02:04:37 10° ENE 02:08:49 17° NE 02:14:01 10° N visible
22 Jun 8.0 20:05:10 10° N 20:14:17 28° NW 20:25:02 10° W visible
22 Jun 8.6 22:05:10 10° NNW 22:06:30 10° NNW 22:07:51 10° NNW visible
23 Jun 7.8 01:45:19 10° ENE 01:49:03 15° NNE 01:53:27 10° N visible
23 Jun 7.8 19:44:33 10° N 19:54:31 33° NW 20:06:16 10° WSW visible
23 Jun 8.6 21:43:01 10° N 21:46:59 12° NNW 21:51:17 10° NW visible
24 Jun 7.9 01:26:16 10° NE 01:29:20 13° NNE 01:32:46 10° N visible
24 Jun 7.6 19:23:58 10° N 19:34:44 39° NW 19:47:18 10° WSW visible
24 Jun 8.5 21:21:54 10° N 21:27:28 15° NNW 21:33:39 10° WNW visible
25 Jun 8.1 01:07:37 10° NE 01:09:40 11° NNE 01:11:53 10° N visible
25 Jun 8.4 21:01:03 10° N 21:07:56 18° NW 21:15:39 10° WNW visible
